This is the latest recevied weather packets stored in our database for station/object KC8YYF. If no packets are shown the sender has not sent any weather packets the latest 10 day(s).
| Time | Temp. | Humidity | Pressure | Rain* | Wind** | Luminosity | Snow |
|---|---|---|---|---|---|---|---|
| 1777856927 | 11.67° C | 53% | 1014.3 hPa | 0 mm | - | 0 W/m² | - |
| 1777856623 | 10.56° C | 60% | 1014.2 hPa | 0 mm | - | 0 W/m² | - |
| 1777856319 | 10.56° C | 66% | 1014.4 hPa | 0 mm | - | 0 W/m² | - |
| 1777856016 | 10.56° C | 65% | 1014.3 hPa | 0 mm | - | 0 W/m² | - |
| 1777855714 | 11.11° C | 63% | 1014.1 hPa | 0 mm | - | 0 W/m² | - |
| 1777855411 | 11.11° C | 66% | 1014.1 hPa | 0 mm | - | 0 W/m² | - |
| 1777855107 | 11.11° C | 67% | 1014.2 hPa | 0 mm | - | 0 W/m² | - |
| 1777854805 | 11.67° C | 62% | 1014.1 hPa | 0 mm | - | 0 W/m² | - |
| 1777854501 | 11.67° C | 63% | 1014.1 hPa | 0 mm | - | 0 W/m² | - |
| 1777854198 | 11.67° C | 61% | 1013.9 hPa | 0 mm | - | 0 W/m² | - |
| 1777853896 | 11.67° C | 62% | 1014.2 hPa | 0 mm | - | 0 W/m² | - |
| 1777853593 | 11.67° C | 59% | 1014.1 hPa | 0 mm | - | 2 W/m² | - |
| 1777853290 | 12.22° C | 61% | 1013.9 hPa | 0 mm | - | 2 W/m² | - |
| 1777852987 | 11.67° C | 56% | 1014.1 hPa | 0 mm | - | 2 W/m² | - |
| 1777852684 | 11.67° C | 62% | 1014.1 hPa | 0 mm | - | 2 W/m² | - |
| 1777852381 | 12.22° C | 64% | 1014.2 hPa | 0 mm | - | 2 W/m² | - |
| 1777852079 | 12.22° C | 58% | 1014.3 hPa | 0 mm | - | 5 W/m² | - |
| 1777851777 | 12.78° C | 59% | 1014.4 hPa | 0 mm | - | 9 W/m² | - |
| 1777851474 | 12.78° C | 60% | 1014.4 hPa | 0 mm | - | 11 W/m² | - |
| 1777851169 | 12.78° C | 59% | 1014.6 hPa | 0 mm | - | 12 W/m² | - |
| 1777850867 | 12.78° C | 55% | 1014.4 hPa | 0 mm | - | 13 W/m² | - |
| 1777850564 | 13.33° C | 52% | 1014.6 hPa | 0 mm | - | 16 W/m² | - |
| 1777850262 | 13.33° C | 47% | 1014.4 hPa | 0 mm | - | 18 W/m² | - |
| 1777849959 | 13.89° C | 46% | 1014.6 hPa | 0 mm | - | 26 W/m² | - |
| 1777849654 | 13.89° C | 43% | 1014.7 hPa | 0 mm | - | 23 W/m² | - |
* Rain latest hour (hover to see other rain measurements)
** Current wind speed in m/s (hover to see current wind gust speed)